Location: Downe
(51.3167°N, 0.0500°E)
Time: 07:49:22
(UTC+00:00)

Tsikada Rocket - Pass Details

Date: 17 November 2019
Orbit: 959 x 1008 km, 82.9° (Epoch: 05 December)

Event Time Altitude Azimuth Distance (km) Brightness Sun altitude
Rises 06:20:25 0° 346° (NNW) 3,751 6.7 -9.3°
Reaches altitude 10° 06:23:04 10° 341° (NNW) 2,793 6.0 -8.9°
Maximum altitude 06:29:06 45° 271° (W) 1,332 4.4 -8.0°
Drops below altitude 10° 06:35:03 10° 200° (SSW) 2,749 6.4 -7.1°
Sets 06:37:39 0° 195° (SSW) 3,686 7.1 -6.8°
